Weather History for Asheville, NC

Change the Weather History Date:

Saturday, March 29, 2014

  Actual Average Record
Temperature  
Mean Temperature 51 °F 50 °F  
Max Temperature 63 °F 63 °F 84 °F (1907)
Min Temperature 38 °F 38 °F 19 °F (1982)
Degree Days  
Heating Degree Days 14 15  
Month to date heating degree days 597 526  
Since 1 July heating degree days 3916 3743  
Cooling Degree Days 0 0  
Month to date cooling degree days 0 0  
Year to date cooling degree days 0 0  
Growing Degree Days 2 (Base 50)    
Moisture  
Dew Point 50 °F    
Average Humidity 83    
Maximum Humidity 100    
Minimum Humidity 65    
Precipitation  
Precipitation 0.38 in 0.13 in 3.66 in (1991)
Month to date precipitation 2.30 3.58  
Year to date precipitation 7.65 11.01  
Snow  
Snow 0.00 in 0.00 in 0.50 in (1941)
Month to date snowfall 0.4 1.8  
Since 1 July snowfall 9.8 9.1  
Snow Depth 0.00 in    
Sea Level Pressure  
Sea Level Pressure 29.87 in    
Wind  
Wind Speed 10 mph (SSW)    
Max Wind Speed 36 mph    
Max Gust Speed 46 mph    
Visibility 6 miles    
Events Rain    
T = Trace of Precipitation, MM = Missing Value Source: NWS Daily Summary

Daily Weather History Graph

Daily Weather History Graph

Search for Another Location

Airport:

Trip Planner

Search our weather history database for the weather conditions in past years. The results will help you decide how hot, cold, wet, or windy it might be!

Date:

Astronomy

Mar. 29, 2014 Rise Set
Actual Time 7:20 AM EDT 7:49 PM EDT
Civil Twilight 6:55 AM EDT 8:14 PM EDT
Nautical Twilight 6:25 AM EDT 8:44 PM EDT
Astronomical Twilight 5:54 AM EDT 9:15 PM EDT
Moon 6:26 AM EDT (3/29) 6:54 PM EDT (3/29)
Length of Visible Light 13h 19m
Length of Day
12h 28m
Waning Crescent, 2% of the Moon is Illuminated
Mar 29
Waning Crescent
Mar 30
New
Apr 7
First Quarter
Apr 15
Full
Apr 22
Last Quarter

Hourly Weather History & Observations

Time (EDT) Temp. Windchill Dew Point Humidity Pressure Visibility Wind Dir Wind Speed Gust Speed Precip Events Conditions
12:54 AM 54.0 °F - 52.0 °F 93% 30.07 in 10.0 mi Calm Calm - N/A   Overcast
1:06 AM 54.0 °F - 52.0 °F 93% 30.09 in 10.0 mi Calm Calm - N/A   Overcast
1:14 AM 54.0 °F - 52.0 °F 93% 30.09 in 8.0 mi Calm Calm - N/A   Overcast
1:23 AM 54.0 °F - 52.0 °F 93% 30.09 in 7.0 mi Calm Calm - 0.00 in Rain Light Rain
1:54 AM 53.1 °F - 52.0 °F 96% 30.04 in 5.0 mi South 3.5 mph - 0.00 in   Overcast
2:35 AM 53.1 °F - 52.0 °F 96% 30.05 in 4.0 mi Calm Calm - N/A   Overcast
2:49 AM 53.6 °F - 51.8 °F 94% 30.05 in 6.0 mi Calm Calm - 0.00 in Rain Light Rain
2:54 AM 53.1 °F - 52.0 °F 96% 30.01 in 5.0 mi Calm Calm - 0.00 in   Overcast
3:09 AM 53.1 °F - 52.0 °F 96% 30.02 in 2.5 mi Calm Calm - 0.01 in Rain Light Rain
3:20 AM 53.1 °F - 52.0 °F 96% 30.02 in 4.0 mi Calm Calm - 0.01 in   Overcast
3:54 AM 53.1 °F - 52.0 °F 96% 29.97 in 4.0 mi Calm Calm - 0.01 in   Overcast
4:11 AM 52.0 °F - 52.0 °F 100% 30.00 in 6.0 mi Calm Calm - N/A   Overcast
4:21 AM 52.0 °F - 52.0 °F 100% 29.99 in 6.0 mi South 3.5 mph - N/A   Overcast
4:54 AM 52.0 °F - 51.1 °F 97% 29.95 in 2.5 mi SSE 3.5 mph - 0.01 in Rain Light Rain
4:58 AM 52.0 °F - 51.1 °F 97% 29.98 in 3.0 mi Calm Calm - 0.00 in Rain Light Rain
5:54 AM 52.0 °F - 51.1 °F 97% 29.91 in 4.0 mi Calm Calm - 0.02 in   Overcast
6:54 AM 52.0 °F - 52.0 °F 100% 29.93 in 4.0 mi WSW 3.5 mph - 0.02 in Rain Light Rain
7:05 AM 52.0 °F - 52.0 °F 100% 29.96 in 2.5 mi Calm Calm - 0.03 in Rain Rain
7:12 AM 52.0 °F - 52.0 °F 100% 29.96 in 3.0 mi Calm Calm - 0.05 in Rain Light Rain
7:25 AM 52.0 °F - 52.0 °F 100% 29.95 in 2.5 mi South 3.5 mph - 0.06 in Rain Rain
7:50 AM 51.8 °F - 51.8 °F 100% 29.95 in 2.5 mi Calm Calm - 0.09 in Rain Rain
7:54 AM 52.0 °F - 52.0 °F 100% 29.92 in 2.5 mi South 3.5 mph - 0.10 in Rain Light Rain
8:06 AM 53.1 °F - 52.0 °F 96% 29.95 in 3.0 mi SSW 5.8 mph - 0.01 in Rain Light Rain
8:08 AM 53.1 °F - 52.0 °F 96% 29.95 in 2.5 mi South 5.8 mph - 0.01 in Rain Light Rain
8:16 AM 53.1 °F - 52.0 °F 96% 29.95 in 2.5 mi SSW 6.9 mph - 0.01 in Rain Light Rain
8:38 AM 53.1 °F - 52.0 °F 96% 29.93 in 2.5 mi South 3.5 mph - 0.02 in Rain Light Rain
8:54 AM 53.1 °F - 52.0 °F 96% 29.89 in 2.5 mi Calm Calm - 0.04 in Rain Rain
9:27 AM 53.1 °F - 52.0 °F 96% 29.91 in 4.0 mi SW 5.8 mph - 0.06 in Rain Light Rain
9:52 AM 53.6 °F - 53.6 °F 100% 29.90 in 2.0 mi SSW 8.1 mph - 0.09 in Rain Light Rain
9:54 AM 53.1 °F - 53.1 °F 100% 29.87 in 2.0 mi SSW 8.1 mph - 0.10 in Rain Light Rain
10:20 AM 54.0 °F - 53.1 °F 97% 29.89 in 2.0 mi South 8.1 mph - 0.03 in Rain Rain
10:54 AM 54.0 °F - 53.1 °F 97% 29.82 in 2.0 mi Variable 5.8 mph - 0.05 in Rain Light Rain
11:01 AM 54.0 °F - 53.1 °F 97% 29.85 in 5.0 mi SSE 6.9 mph - 0.00 in   Overcast
11:54 AM 55.9 °F - 54.0 °F 93% 29.79 in 5.0 mi ESE 5.8 mph - 0.00 in   Overcast
12:50 PM 55.4 °F - 53.6 °F 94% 29.80 in 2.5 mi SE 4.6 mph - 0.01 in Rain Light Rain
12:54 PM 55.9 °F - 54.0 °F 93% 29.76 in 2.5 mi SSE 4.6 mph - 0.01 in Rain Light Rain
1:03 PM 55.9 °F - 55.0 °F 97% 29.79 in 4.0 mi ESE 5.8 mph - 0.00 in Rain Light Rain
1:31 PM 57.0 °F - 55.0 °F 93% 29.77 in 10.0 mi East 6.9 mph - 0.01 in Rain Light Rain
1:40 PM 57.0 °F - 55.0 °F 93% 29.77 in 8.0 mi ESE 8.1 mph - 0.01 in Rain Light Rain
1:54 PM 57.9 °F - 55.0 °F 90% 29.72 in 8.0 mi SE 8.1 mph - 0.01 in   Overcast
2:54 PM 57.9 °F - 55.0 °F 90% 29.69 in 10.0 mi South 10.4 mph - 0.00 in Rain Light Rain
3:54 PM 61.0 °F - 54.0 °F 78% 29.65 in 10.0 mi South 8.1 mph - 0.00 in   Overcast
4:49 PM 62.6 °F - 55.4 °F 77% 29.67 in 10.0 mi SSW 12.7 mph - 0.00 in   Overcast
4:54 PM 62.1 °F - 55.0 °F 78% 29.63 in 10.0 mi SSW 11.5 mph - 0.00 in Rain Light Rain
5:54 PM 60.1 °F - 55.0 °F 83% 29.64 in 10.0 mi North 8.1 mph - 0.00 in   Overcast
6:01 PM 60.1 °F - 54.0 °F 80% 29.68 in 10.0 mi NNW 15.0 mph - N/A   Overcast
6:32 PM 55.0 °F - 51.1 °F 86% 29.70 in 6.0 mi North 18.4 mph 26.5 mph 0.01 in Rain Light Rain
6:54 PM 54.0 °F - 46.9 °F 77% 29.68 in 10.0 mi NNW 19.6 mph 26.5 mph 0.01 in   Overcast
7:02 PM 53.1 °F - 46.9 °F 80% 29.72 in 10.0 mi NNW 23.0 mph 28.8 mph N/A   Mostly Cloudy
7:54 PM 50.0 °F - 42.1 °F 74% 29.72 in 10.0 mi NNW 24.2 mph 32.2 mph 0.00 in   Mostly Cloudy
8:01 PM 50.0 °F - 42.1 °F 74% 29.75 in 10.0 mi NNW 21.9 mph 32.2 mph N/A   Overcast
8:54 PM 48.0 °F - 37.9 °F 68% 29.75 in 10.0 mi NNW 25.3 mph 33.4 mph N/A   Mostly Cloudy
9:49 PM 44.6 °F 36.4 °F 35.6 °F 71% 29.79 in 10.0 mi NNW 20.7 mph 27.6 mph N/A   Overcast
9:54 PM 45.0 °F 36.2 °F 34.0 °F 65% 29.77 in 10.0 mi NNW 24.2 mph 35.7 mph N/A   Overcast
10:06 PM 44.1 °F 35.0 °F 33.1 °F 65% 29.80 in 10.0 mi NNW 24.2 mph 34.5 mph N/A   Mostly Cloudy
10:54 PM 42.1 °F 34.2 °F 33.1 °F 70% 29.79 in 10.0 mi North 16.1 mph 24.2 mph N/A   Overcast
11:36 PM 41.0 °F 30.7 °F 33.1 °F 73% 29.81 in 10.0 mi NNW 25.3 mph 32.2 mph N/A   Mostly Cloudy
11:43 PM 41.0 °F 30.0 °F 32.0 °F 70% 29.80 in 10.0 mi NNW 28.8 mph 35.7 mph N/A   Overcast
11:54 PM 41.0 °F 31.1 °F 32.0 °F 70% 29.79 in 10.0 mi NNW 23.0 mph 34.5 mph N/A   Mostly Cloudy